HO-113
1 50466U 21131B   25352.62116572  .00000535  00000-0  17979-3 0  9995
2 50466  98.5054  81.0132 0003075 284.4185  75.6663 14.41120295209100
SNUGLITE 2
1 52899U 22065F   25352.33888060  .00001042  00000-0  20874-3 0  9992
2 52899  98.1932 132.8402 0006702 225.4006 134.6651 14.63851581184530
UmKA 1 (RS40S)
1 57172U 23091G   25352.60809671  .00005174  00000-0  25540-3 0  9997
2 57172  97.5338  47.0477 0014304  34.4568 325.7590 15.18246295136587
CubeBel-2 (EU11S)
1 57175U 23091K   25352.62996299  .00010938  00000-0  45111-3 0  9995
2 57175  97.5338  49.6096 0011679  37.4316 322.7733 15.24179241136759
RS-38S
1 57189U 23091Z   25352.59423823  .00013669  00000-0  47935-3 0  9994
2 57189  97.5362  54.0746 0008235   3.0158 357.1130 15.29535784137027
SONATE-2
1 59112U 24043Q   25352.35164917  .00027532  00000-0  57644-3 0  9992
2 59112  97.5329 128.8131 0009174 142.1338 218.0557 15.45371754 99842
MO-122
1 60209U 24125G   25352.09451983  .00026716  00000-0  53554-3 0  9994
2 60209  97.2516 202.4710 0014586 158.1797 202.0077 15.46576974 81435
GRBBeta
1 60237U 24128C   25352.59899402  .00004080  00000-0  29271-3 0  9994
2 60237  61.9894 129.0570 0056015  97.7276 263.0181 15.04813609 79077
Curium One
1 60242U 24128H   25352.56090157  .00007685  00000-0  47986-3 0  9994
2 60242  61.9789 123.9282 0055657  94.4872 266.2583 15.08998276 79165
ROBUSTA-3A
1 60243U 24128J   25352.56688485  .00006878  00000-0  43921-3 0  9990
2 60243  61.9862 125.4666 0055872  92.0099 268.7395 15.08305079 79144
CatSat
1 60246U 24125J   25352.51993723  .00034193  00000-0  81305-3 0  9998
2 60246  97.2308 199.8433 0034296 123.7333 236.7191 15.40947434 79413
HYPERVIEW-1G (RS66S)
1 61772U 24199AP  25352.62485361  .00036817  00000-0  69564-3 0  9998
2 61772  97.3207 222.1352 0008202 210.2118 149.8660 15.48308416106525
AO-123
1 61781U 24199AY  25352.61637774  .00008965  00000-0  29123-3 0  9994
2 61781  97.3248 218.0022 0013012 232.0136 127.9931 15.32072479106242
ZIMSAT 2
1 61783U 24199BA  25352.64122117  .00210619  00000-0  13365-2 0  9990
2 61783  97.3078 225.9089 0004715 160.4411 199.7037 15.75892832109938
HADES-R (SO-124)
1 62690U 25009CK  25351.96316463  .00147949  00000-0  17623-2 0  9998
2 62690  97.3878  74.7914 0001195 260.1615  99.9507 15.60601205 51591
HYDRA-T
1 62692U 25009CM  25352.19105371  .00172134  00000-0  18753-2 0  9999
2 62692  97.3865  75.2476 0001505 274.8464  85.2623 15.62842954 51640
JINJUSat 1B
1 63210U 25052A   25352.15971476  .00012978  00000-0  49405-3 0  9995
2 63210  97.4208 244.2816 0005014  33.7402 326.4155 15.26861485 42413
NUSHSAT 1
1 63211U 25052B   25352.28224037  .00017175  00000-0  63143-3 0  9993
2 63211  97.4190 244.5324 0005118  37.0942 323.0650 15.27949832 42442
TEVEL2-4
1 63213U 25052D   25352.22004022  .00015813  00000-0  59393-3 0  9998
2 63213  97.4108 244.0112 0004821  51.5127 308.6544 15.27261937 42421
TEVEL2-5
1 63214U 25052E   25352.61890214  .00013839  00000-0  52131-3 0  9997
2 63214  97.4108 244.3941 0004788  51.0867 309.0798 15.27195805 42485
TEVEL2-6
1 63215U 25052F   25352.42982063  .00015771  00000-0  59446-3 0  9994
2 63215  97.4111 244.1944 0004898  51.0314 309.1361 15.27144655 42451
TEVEL2-1
1 63217U 25052H   25352.14603100  .00013938  00000-0  53125-3 0  9998
2 63217  97.4083 243.7192 0005201  59.8889 300.2865 15.26801433 42402
TEVEL2-3
1 63218U 25052J   25352.60391340  .00014352  00000-0  54632-3 0  9995
2 63218  97.4084 244.1790 0005229  59.3561 300.8193 15.26837963 42479
TEVEL2-2
1 63219U 25052K   25352.21233311  .00015170  00000-0  57780-3 0  9992
2 63219  97.4085 243.7852 0005223  60.3842 299.7917 15.26806589 42417
TEVEL2-9
1 63237U 25052AD  25352.44318141  .00015003  00000-0  59731-3 0  9995
2 63237  97.4148 243.7125 0009205  66.1968 294.0234 15.25305104 42413
TEVEL2-7
1 63238U 25052AE  25352.58888303  .00013720  00000-0  54906-3 0  9996
2 63238  97.4148 243.8300 0009296  65.8778 294.3431 15.25151935 42430
TEVEL2-8
1 63239U 25052AF  25352.46339773  .00014608  00000-0  58483-3 0  9996
2 63239  97.4152 243.6902 0009317  66.4005 293.8211 15.25123708 42411
HYDRA-W
1 63490U 25052BL  25352.21863947  .00068284  00000-0  15821-2 0  9990
2 63490  97.4067 246.0800 0011289  57.9505 302.2837 15.42123797 42562
HADES-ICM (SO-125)
1 63492U 25052BN  25351.96064983  .00050303  00000-0  12519-2 0  9990
2 63492  97.4082 245.5345 0011625  61.2981 298.9432 15.40039410 42501
Dragonfly
1 65729U 98067XH  25352.58353461  .00166206  00000-0  11293-2 0  9990
2 65729  51.6249 105.7955 0007166 314.6867  45.3548 15.73865471 14084
RSP-03
1 65732U 98067XL  25352.53368180  .00121384  00000-0  97504-3 0  9991
2 65732  51.6263 106.9735 0005666 289.7816  70.2570 15.70075461 14072
GHS-01
1 65733U 98067XM  25352.58676697  .00217764  00000-0  12611-2 0  9995
2 65733  51.6277 105.0740 0007965 318.3708  41.6685 15.77352830 14105
BOTAN
1 65942U 98067XP  25352.40687507  .00105165  00000-0  10814-2 0  9994
2 65942  51.6278 110.6371 0002848 287.2475  72.8208 15.64050786 10755
BEE-1000
1 66650U 25274A   25352.25302033  .00001109  00000-0  11571-3 0  9997
2 66650  97.7399 279.3395 0010620 230.8945 129.1330 14.91680040  3226
SPIRONE
1 66657U 25274H   25352.37601035  .00001912  00000-0  19167-3 0  9992
2 66657  97.7399 279.4847 0010705 254.6812 105.3224 14.92487337  3242
K-HERO
1 66660U 25274L   25352.36862441  .00002323  00000-0  22869-3 0  9995
2 66660  97.7403 279.4958 0012525 260.0181  99.9625 14.92994009  3249
SNUGLITE-III DURI
1 66661U 25274M   25352.36650972  .00002126  00000-0  20906-3 0  9991
2 66661  97.7402 279.4978 0013141 261.2536  98.7195 14.93128425  3244
SilverSat
1 66909U 98067XV  25352.58523640  .00059069  00000-0  95010-3 0  9997
2 66909  51.6304 113.3244 0003867 263.4051  96.6498 15.52406005  2523
CEVROSAT1
1 98526U 25248E   25313.13142326  .00000000  00000-0  19360-3 0    02
2 98526  45.4084 218.4764 0001315 254.8982 242.1062 15.17981583    02
